Tracking 28125 objects as of 2-Oct-2023
HD Live streaming from Space Station
objects crossing your sky now

SL-16 R/B

Track SL-16 R/B now!
10-day predictions
SL-16 R/B is classified as:


NORAD ID: 25861
Int'l Code: 1999-039B
Perigee: 628.1 km
Apogee: 647.8 km
Inclination: 98.1 °
Period: 97.3 minutes
Semi major axis: 7008 km
RCS: 13.5291 m2 (large)
Launch date: July 17, 1999
Source: Commonwealth of Independent States (former USSR) (CIS)
Launch site: TYURATAM MISSILE AND SPACE COMPLEX (TTMTR)

Note: This is a ROCKET BODY
Your satellite tracking list
Your tracking list is empty




NASA's NSSDC Master Catalog

Two Line Element Set (TLE):
1 25861U 99039B   23275.39127362  .00001053  00000-0  14788-3 0  9994
2 25861  98.1283 313.9893 0014043 252.4736 107.4941 14.79526365305396
Source of the keplerian elements: AFSPC